Voltar ao catálogo

FOX-1

AtivoRádio AmadorLEO
NORAD 40967·PAYLOAD·🇺🇸 United States

Lançado Oct 8, 2015 de Vandenberg Space Force Base

Loading…

Próximas Passagens (próximas 24 horas)

TLE

AtualizadoSource: Space-Track

Época: Sep 13, 2026, 11:25 UTC

1 40967U 15058D   26256.47575324  .00001376  00000-0  12992-3 0  9996
2 40967  64.7758   4.5067 0138042  23.5236 337.2107 14.91385543126731

Acompanhe FOX-1 em tempo real com AllMySat

Download on the App Store